• In Czech Republic
  • List of Countries
  • For 7 days
  • Water Temperature
  • Satellite Maps
  • Weather Map
  • Weather Widgets
  • user-avatar
    Login

    Hourly Weather Krasnogorskiy

    Today, 23 September, Sunday

    Time Temperature Precipitation Wind Pressure Humidity
    00:00 +16°C° 0 mm 2 mps 756 mmHg 91%
    01:00 +15°C° 0 mm 2 mps 756 mmHg 91%
    02:00 +15°C° 0 mm 2 mps 756 mmHg 92%
    03:00 +15°C° 0 mm 2 mps 755 mmHg 93%
    04:00 +14°C° 0 mm 2 mps 755 mmHg 93%
    05:00 +14°C° 0 mm 2 mps 755 mmHg 94%
    06:00 +13°C° 0 mm 3 mps 755 mmHg 94%
    07:00 +16°C° 0 mm 3 mps 755 mmHg 87%
    08:00 +18°C° 0 mm 4 mps 754 mmHg 80%
    09:00 +20°C° 0 mm 4 mps 754 mmHg 72%
    10:00 +21°C° 0 mm 4 mps 754 mmHg 66%
    11:00 +22°C° 0 mm 5 mps 754 mmHg 61%
    12:00 +23°C° 0 mm 6 mps 753 mmHg 56%
    13:00 +23°C° 0 mm 6 mps 753 mmHg 56%
    14:00 +23°C° 0 mm 6 mps 753 mmHg 56%
    15:00 +25°C° 0 mm 4 mps 752 mmHg 56%
    16:00 +23°C° 0 mm 5 mps 752 mmHg 62%
    17:00 +21°C° 0 mm 5 mps 751 mmHg 67%
    18:00 +20°C° 0 mm 5 mps 751 mmHg 72%
    19:00 +20°C° 0 mm 5 mps 751 mmHg 73%
    20:00 +19°C° 0 mm 5 mps 750 mmHg 74%
    21:00 +19°C° 0 mm 5 mps 750 mmHg 75%
    22:00 +17°C° 0 mm 5 mps 750 mmHg 74%
    23:00 +17°C° 0 mm 5 mps 749 mmHg 73%

    Tomorrow, 24 September, Monday

    Time Temperature Precipitation Wind Pressure Humidity
    00:00 +16°C° 0 mm 5 mps 749 mmHg 72%
    01:00 +16°C° 0 mm 5 mps 749 mmHg 69%
    02:00 +15°C° 0 mm 5 mps 748 mmHg 67%
    03:00 +15°C° 0 mm 5 mps 748 mmHg 65%
    04:00 +14°C° 0 mm 5 mps 748 mmHg 63%
    05:00 +14°C° 0 mm 5 mps 748 mmHg 61%
    06:00 +13°C° 0 mm 5 mps 748 mmHg 59%
    07:00 +13°C° 0.5 mm 5 mps 748 mmHg 66%
    08:00 +12°C° 0.5 mm 5 mps 749 mmHg 72%
    09:00 +12°C° 0.5 mm 5 mps 749 mmHg 79%
    10:00 +11°C° 1.1 mm 4 mps 750 mmHg 81%
    11:00 +11°C° 1.1 mm 4 mps 750 mmHg 84%
    12:00 +10°C° 1.1 mm 4 mps 751 mmHg 86%
    13:00 +11°C° 0.1 mm 3 mps 751 mmHg 81%
    14:00 +13°C° 0.1 mm 2 mps 751 mmHg 75%
    15:00 +14°C° 0.1 mm 2 mps 752 mmHg 69%
    16:00 +13°C° 0 mm 1 mps 752 mmHg 73%
    17:00 +12°C° 0 mm 1 mps 752 mmHg 77%
    18:00 +11°C° 0 mm 1 mps 752 mmHg 82%
    19:00 +11°C° 0 mm 1 mps 752 mmHg 83%
    20:00 +11°C° 0 mm 1 mps 752 mmHg 84%
    21:00 +10°C° 0 mm 2 mps 752 mmHg 85%
    22:00 +9°C° 0 mm 2 mps 752 mmHg 85%
    23:00 +9°C° 0 mm 2 mps 752 mmHg 86%

    Day after tomorrow, 25 September, Tuesday

    Time Temperature Precipitation Wind Pressure Humidity
    00:00 +9°C° 0 mm 3 mps 752 mmHg 86%
    01:00 +9°C° 0 mm 3 mps 751 mmHg 85%
    02:00 +9°C° 0 mm 3 mps 751 mmHg 84%
    03:00 +10°C° 0 mm 4 mps 751 mmHg 83%
    04:00 +10°C° 0.2 mm 4 mps 750 mmHg 84%
    05:00 +9°C° 0.2 mm 5 mps 749 mmHg 85%
    06:00 +9°C° 0.2 mm 5 mps 749 mmHg 85%
    07:00 +9°C° 0.7 mm 6 mps 748 mmHg 85%
    08:00 +9°C° 0.7 mm 6 mps 748 mmHg 84%
    09:00 +9°C° 0.7 mm 7 mps 747 mmHg 84%
    10:00 +9°C° 1 mm 7 mps 747 mmHg 84%
    11:00 +9°C° 1 mm 7 mps 747 mmHg 84%
    12:00 +9°C° 1 mm 7 mps 746 mmHg 85%
    13:00 +10°C° 1.6 mm 7 mps 746 mmHg 86%
    14:00 +10°C° 1.6 mm 7 mps 746 mmHg 88%
    15:00 +10°C° 1.6 mm 6 mps 745 mmHg 89%
    16:00 +10°C° 0.3 mm 6 mps 745 mmHg 90%
    17:00 +10°C° 0.3 mm 5 mps 745 mmHg 90%
    18:00 +10°C° 0.3 mm 5 mps 745 mmHg 90%
    19:00 +9°C° 0.1 mm 5 mps 745 mmHg 88%
    20:00 +9°C° 0.1 mm 5 mps 745 mmHg 86%
    21:00 +8°C° 0.1 mm 4 mps 746 mmHg 84%
    22:00 +7°C° 0 mm 5 mps 746 mmHg 85%
    23:00 +7°C° 0 mm 5 mps 746 mmHg 86%

    26 September, Wednesday

    Time Temperature Precipitation Wind Pressure Humidity
    00:00 +7°C° 0 mm 5 mps 746 mmHg 88%
    01:00 +6°C° 0 mm 5 mps 747 mmHg 87%
    02:00 +5°C° 0 mm 6 mps 747 mmHg 87%
    03:00 +5°C° 0 mm 6 mps 747 mmHg 87%
    04:00 +5°C° 0 mm 6 mps 748 mmHg 87%
    05:00 +5°C° 0 mm 6 mps 748 mmHg 86%
    06:00 +7°C° 0 mm 6 mps 748 mmHg 86%
    07:00 +7°C° 0 mm 6 mps 749 mmHg 84%
    08:00 +7°C° 0 mm 6 mps 750 mmHg 82%
    09:00 +8°C° 0 mm 6 mps 751 mmHg 81%
    10:00 +8°C° 0.1 mm 6 mps 751 mmHg 80%
    11:00 +8°C° 0.1 mm 6 mps 752 mmHg 79%
    12:00 +8°C° 0.1 mm 5 mps 753 mmHg 78%
    13:00 +8°C° 0.1 mm 5 mps 754 mmHg 78%
    14:00 +8°C° 0.1 mm 5 mps 755 mmHg 78%
    15:00 +8°C° 0.1 mm 5 mps 755 mmHg 78%
    16:00 +7°C° 0 mm 4 mps 756 mmHg 79%
    17:00 +7°C° 0 mm 4 mps 756 mmHg 80%
    18:00 +7°C° 0 mm 3 mps 757 mmHg 81%
    19:00 +7°C° 0 mm 3 mps 757 mmHg 81%
    20:00 +5°C° 0 mm 3 mps 757 mmHg 82%
    21:00 +5°C° 0 mm 3 mps 757 mmHg 82%
    22:00 +4°C° 0 mm 3 mps 757 mmHg 85%
    23:00 +3°C° 0 mm 3 mps 757 mmHg 87%

    27 September, Thursday

    Time Temperature Precipitation Wind Pressure Humidity
    00:00 +3°C° 0 mm 3 mps 757 mmHg 89%
    01:00 +2°C° 0 mm 3 mps 757 mmHg 89%
    02:00 +2°C° 0 mm 3 mps 757 mmHg 89%
    03:00 +2°C° 0 mm 3 mps 757 mmHg 90%
    04:00 +2°C° 0 mm 3 mps 756 mmHg 88%
    05:00 +1°C° 0 mm 4 mps 756 mmHg 87%
    06:00 +1°C° 0 mm 4 mps 755 mmHg 86%
    07:00 +2°C° 0 mm 5 mps 755 mmHg 77%
    08:00 +4°C° 0 mm 6 mps 754 mmHg 69%
    09:00 +5°C° 0 mm 6 mps 753 mmHg 61%
    10:00 +6°C° 0 mm 7 mps 753 mmHg 59%
    11:00 +8°C° 0 mm 7 mps 752 mmHg 56%
    12:00 +7°C° 0 mm 8 mps 752 mmHg 53%
    13:00 +7°C° 0.1 mm 8 mps 751 mmHg 57%
    14:00 +6°C° 0.1 mm 7 mps 750 mmHg 61%
    15:00 +6°C° 0.1 mm 7 mps 750 mmHg 65%
    16:00 +5°C° 0.5 mm 7 mps 749 mmHg 70%
    17:00 +5°C° 0.5 mm 7 mps 748 mmHg 75%
    18:00 +4°C° 0.5 mm 7 mps 748 mmHg 80%
    19:00 +4°C° 0.7 mm 7 mps 748 mmHg 83%
    20:00 +4°C° 0.7 mm 6 mps 747 mmHg 85%
    21:00 +4°C° 0.7 mm 6 mps 747 mmHg 88%
    22:00 +4°C° 0.1 mm 6 mps 747 mmHg 88%
    23:00 +6°C° 0.1 mm 5 mps 747 mmHg 89%

    28 September, Friday

    Time Temperature Precipitation Wind Pressure Humidity
    00:00 +6°C° 0.1 mm 5 mps 747 mmHg 90%
    01:00 +5°C° 0 mm 5 mps 747 mmHg 91%
    02:00 +5°C° 0 mm 5 mps 748 mmHg 92%
    03:00 +5°C° 0 mm 4 mps 748 mmHg 94%
    04:00 +4°C° 0 mm 4 mps 749 mmHg 94%
    05:00 +4°C° 0 mm 4 mps 749 mmHg 94%
    06:00 +4°C° 0 mm 4 mps 749 mmHg 95%
    07:00 +5°C° 0 mm 4 mps 750 mmHg 89%
    08:00 +6°C° 0 mm 4 mps 750 mmHg 84%
    09:00 +7°C° 0 mm 5 mps 750 mmHg 79%
    10:00 +8°C° 0 mm 5 mps 750 mmHg 72%
    11:00 +9°C° 0 mm 5 mps 750 mmHg 65%
    12:00 +10°C° 0 mm 5 mps 750 mmHg 59%
    13:00 +11°C° 0 mm 6 mps 749 mmHg 58%
    14:00 +11°C° 0 mm 6 mps 748 mmHg 58%
    15:00 +11°C° 0 mm 7 mps 747 mmHg 58%
    16:00 +11°C° 0.1 mm 8 mps 746 mmHg 63%
    17:00 +11°C° 0.1 mm 9 mps 745 mmHg 68%
    18:00 +11°C° 0.1 mm 10 mps 744 mmHg 74%
    19:00 +11°C° 0.9 mm 10 mps 742 mmHg 77%
    20:00 +11°C° 0.9 mm 10 mps 741 mmHg 80%
    21:00 +12°C° 0.9 mm 10 mps 740 mmHg 83%
    22:00 +9°C° 0.4 mm 10 mps 741 mmHg 80%
    23:00 +7°C° 0.4 mm 11 mps 742 mmHg 77%
    Show more